Weather History for Fort Drum, NY

Change the Weather History Date:

Saturday, November 3, 2012

  Actual Average Record
Temperature  
Mean Temperature 36 °F -  
Max Temperature 38 °F 46 °F 62 °F (2005)
Min Temperature 33 °F 30 °F 14 °F (2002)
Degree Days  
Heating Degree Days 29    
Moisture  
Dew Point 31 °F    
Average Humidity 82    
Maximum Humidity 100    
Minimum Humidity 70    
Precipitation  
Precipitation 0.01 in - - ()
Sea Level Pressure  
Sea Level Pressure 29.91 in    
Wind  
Wind Speed 7 mph (NW)    
Max Wind Speed 17 mph    
Max Gust Speed 22 mph    
Visibility 10 miles    
Events Rain    
Averages and records for this station are not official NWS values.
T = Trace of Precipitation, MM = Missing Value Source: NWS Daily Summary

Daily Weather History Graph

Daily Weather History Graph

Search for Another Location

Airport:

Trip Planner

Search our weather history database for the weather conditions in past years. The results will help you decide how hot, cold, wet, or windy it might be!

Date:

Astronomy

Nov. 03, 2012 Rise Set
Actual Time 7:42 AM EDT 5:49 PM EDT
Civil Twilight 7:12 AM EDT 6:19 PM EDT
Nautical Twilight 6:38 AM EDT 6:54 PM EDT
Astronomical Twilight 6:04 AM EDT 7:27 PM EDT
Moon 9:25 PM EDT (11/3) 11:49 AM EDT (11/3)
Length of Visible Light 11h 07m
Length of Day
10h 06m
Waning Gibbous, 80% of the Moon is Illuminated
Nov 3
Waning Gibbous
Nov 6
Last Quarter
Nov 13
New
Nov 20
First Quarter
Nov 28
Full

Hourly Weather History & Observations

Time (EDT) Temp. Windchill Dew Point Humidity Pressure Visibility Wind Dir Wind Speed Gust Speed Precip Events Conditions
12:03 AM 35.6 °F 30.7 °F 33.8 °F 93% 29.79 in 10.0 mi West 5.8 mph - N/A   Light Drizzle
12:19 AM 35.6 °F 31.7 °F 33.8 °F 93% 29.79 in 10.0 mi West 4.6 mph - N/A   Light Drizzle
12:27 AM 35.6 °F 30.7 °F 33.8 °F 93% 29.80 in 10.0 mi WNW 5.8 mph - N/A   Light Drizzle
12:34 AM 35.6 °F 30.7 °F 33.8 °F 93% 29.80 in 10.0 mi West 5.8 mph - N/A   Overcast
12:55 AM 34.9 °F 29.9 °F 34.3 °F 98% 29.80 in 10.0 mi West 5.8 mph - 0.00 in   Overcast
1:04 AM 35.6 °F 29.9 °F 33.8 °F 93% 29.81 in 10.0 mi West 6.9 mph - N/A   Light Drizzle
1:22 AM 35.6 °F 31.7 °F 33.8 °F 93% 29.81 in 10.0 mi West 4.6 mph - N/A   Overcast
1:31 AM 35.6 °F 30.7 °F 33.8 °F 93% 29.81 in 10.0 mi West 5.8 mph - N/A   Overcast
1:47 AM 35.6 °F 31.7 °F 33.8 °F 93% 29.81 in 10.0 mi West 4.6 mph - N/A   Overcast
1:48 AM 35.6 °F 31.7 °F 33.8 °F 93% 29.81 in 10.0 mi West 4.6 mph - N/A   Overcast
1:52 AM 35.6 °F 31.7 °F 33.8 °F 93% 29.81 in 10.0 mi West 4.6 mph - N/A   Overcast
1:54 AM 35.6 °F 30.7 °F 33.8 °F 93% 29.81 in 10.0 mi West 5.8 mph - N/A   Overcast
1:55 AM 34.9 °F 29.9 °F 34.7 °F 99% 29.81 in 10.0 mi Variable 5.8 mph - 0.00 in   Overcast
2:55 AM 35.1 °F 31.0 °F 34.9 °F 99% 29.82 in 10.0 mi West 4.6 mph - N/A   Overcast
3:55 AM 35.1 °F - 33.8 °F 95% 29.82 in 10.0 mi Calm Calm - N/A   Overcast
4:46 AM 35.6 °F 31.7 °F 33.8 °F 93% 29.82 in 10.0 mi WNW 4.6 mph - N/A   Overcast
4:47 AM 35.6 °F 31.7 °F 33.8 °F 93% 29.82 in 10.0 mi Variable 4.6 mph - N/A   Overcast
4:48 AM 35.6 °F 31.7 °F 33.8 °F 93% 29.82 in 10.0 mi Variable 4.6 mph - N/A   Overcast
4:55 AM 34.9 °F 30.8 °F 33.1 °F 93% 29.83 in 10.0 mi WNW 4.6 mph - N/A   Overcast
5:28 AM 35.6 °F 32.8 °F 33.8 °F 93% 29.83 in 10.0 mi WNW 3.5 mph - N/A Rain Light Rain
5:45 AM 35.6 °F 31.7 °F 33.8 °F 93% 29.84 in 10.0 mi WNW 4.6 mph - N/A Rain Light Rain
5:55 AM 34.7 °F 29.6 °F 33.8 °F 97% 29.84 in 10.0 mi NW 5.8 mph - 0.00 in   Light Drizzle
6:06 AM 33.8 °F 28.6 °F 33.8 °F 100% 29.84 in 10.0 mi WNW 5.8 mph - N/A   Overcast
6:23 AM 35.6 °F 32.8 °F 33.8 °F 93% 29.85 in 10.0 mi Variable 3.5 mph - N/A   Overcast
6:26 AM 35.6 °F 32.8 °F 33.8 °F 93% 29.85 in 10.0 mi Variable 3.5 mph - N/A   Light Drizzle
6:31 AM 35.6 °F 31.7 °F 33.8 °F 93% 29.85 in 10.0 mi West 4.6 mph - N/A   Overcast
6:39 AM 35.6 °F 31.7 °F 33.8 °F 93% 29.85 in 10.0 mi WNW 4.6 mph - N/A   Overcast
6:44 AM 35.6 °F 30.7 °F 33.8 °F 93% 29.85 in 10.0 mi WNW 5.8 mph - N/A   Overcast
6:55 AM 34.9 °F 30.8 °F 33.4 °F 94% 29.86 in 10.0 mi WNW 4.6 mph - 0.01 in   Overcast
7:48 AM 35.6 °F 30.7 °F 32.0 °F 87% 29.87 in 10.0 mi Variable 5.8 mph - N/A   Overcast
7:55 AM 34.7 °F 29.6 °F 32.0 °F 90% 29.88 in 10.0 mi WNW 5.8 mph - 0.00 in   Overcast
8:03 AM 35.6 °F 31.7 °F 32.0 °F 87% 29.88 in 10.0 mi Variable 4.6 mph - N/A   Overcast
8:54 AM 35.6 °F 29.2 °F 30.2 °F 81% 29.90 in 10.0 mi NW 8.1 mph - N/A   Overcast
8:55 AM 34.9 °F 27.7 °F 31.1 °F 86% 29.90 in 10.0 mi NW 9.2 mph - 0.00 in   Overcast
8:56 AM 35.6 °F 29.2 °F 30.2 °F 81% 29.90 in 10.0 mi NW 8.1 mph - N/A   Overcast
9:20 AM 35.6 °F 31.7 °F 30.2 °F 81% 29.91 in 10.0 mi Variable 4.6 mph - N/A   Overcast
9:55 AM 35.1 °F 27.4 °F 31.6 °F 87% 29.91 in 10.0 mi NNW 10.4 mph - 0.00 in Rain Light Rain
9:58 AM 35.6 °F 27.5 °F 32.0 °F 87% 29.91 in 10.0 mi NW 11.5 mph - N/A Rain Light Rain
10:04 AM 35.6 °F 29.9 °F 32.0 °F 87% 29.91 in 10.0 mi NW 6.9 mph - N/A   Light Drizzle
10:10 AM 35.6 °F 28.6 °F 32.0 °F 87% 29.91 in 10.0 mi NW 9.2 mph - N/A   Light Drizzle
10:11 AM 35.6 °F 28.0 °F 32.0 °F 87% 29.91 in 10.0 mi NW 10.4 mph - N/A   Light Drizzle
10:55 AM 35.6 °F 27.1 °F 31.5 °F 85% 29.92 in 10.0 mi NNW 12.7 mph 20.7 mph 0.00 in   Light Drizzle
11:03 AM 35.6 °F 26.6 °F 32.0 °F 87% 29.92 in 10.0 mi NNW 13.8 mph - N/A   Overcast
11:12 AM 35.6 °F 27.1 °F 32.0 °F 87% 29.92 in 10.0 mi NNW 12.7 mph 19.6 mph N/A   Light Drizzle
11:14 AM 35.6 °F 27.1 °F 32.0 °F 87% 29.92 in 10.0 mi NW 12.7 mph 19.6 mph N/A   Light Drizzle
11:55 AM 36.5 °F 29.2 °F 31.1 °F 81% 29.92 in 10.0 mi NW 10.4 mph - 0.00 in Rain Light Rain
12:10 PM 37.4 °F 28.9 °F 32.0 °F 81% 29.92 in 10.0 mi NW 13.8 mph 18.4 mph N/A   Overcast
12:15 PM 37.4 °F 29.8 °F 32.0 °F 81% 29.92 in 10.0 mi NW 11.5 mph 18.4 mph N/A   Light Drizzle
12:41 PM 37.4 °F 29.8 °F 32.0 °F 81% 29.92 in 10.0 mi NNW 11.5 mph - N/A   Overcast
12:44 PM 37.4 °F 29.3 °F 32.0 °F 81% 29.92 in 10.0 mi NW 12.7 mph - N/A   Overcast
12:45 PM 37.4 °F 29.8 °F 32.0 °F 81% 29.92 in 10.0 mi NW 11.5 mph - N/A Rain Light Rain
12:48 PM 35.6 °F 28.0 °F 30.2 °F 81% 29.92 in 10.0 mi NW 10.4 mph - N/A Rain Light Rain
12:50 PM 35.6 °F 27.5 °F 32.0 °F 87% 29.92 in 10.0 mi NW 11.5 mph - N/A Rain Light Rain
12:55 PM 36.1 °F 28.2 °F 32.4 °F 86% 29.92 in 10.0 mi NW 11.5 mph - 0.00 in   Overcast
12:59 PM 37.4 °F 30.3 °F 32.0 °F 81% 29.92 in 10.0 mi NNW 10.4 mph - N/A   Overcast
1:07 PM 37.4 °F 30.8 °F 32.0 °F 81% 29.92 in 10.0 mi NW 9.2 mph - N/A Rain Light Rain
1:11 PM 37.4 °F 28.9 °F 32.0 °F 81% 29.92 in 10.0 mi NW 13.8 mph 17.3 mph N/A   Overcast
1:12 PM 37.4 °F 29.8 °F 32.0 °F 81% 29.92 in 10.0 mi NNW 11.5 mph 17.3 mph N/A   Overcast
1:17 PM 37.4 °F 29.8 °F 32.0 °F 81% 29.92 in 10.0 mi North 11.5 mph 17.3 mph N/A   Overcast
1:21 PM 37.4 °F 30.3 °F 32.0 °F 81% 29.92 in 10.0 mi North 10.4 mph - N/A   Overcast
1:23 PM 37.4 °F 28.2 °F 32.0 °F 81% 29.92 in 10.0 mi NW 16.1 mph 20.7 mph N/A Rain Light Rain
1:33 PM 37.4 °F 28.9 °F 32.0 °F 81% 29.92 in 10.0 mi NW 13.8 mph 18.4 mph N/A Rain Light Rain
1:34 PM 37.4 °F 28.5 °F 32.0 °F 81% 29.92 in 10.0 mi NW 15.0 mph 18.4 mph N/A Rain Light Rain
1:35 PM 37.4 °F 28.5 °F 32.0 °F 81% 29.92 in 10.0 mi NW 15.0 mph 20.7 mph N/A   Overcast
1:37 PM 37.4 °F 28.9 °F 32.0 °F 81% 29.92 in 10.0 mi NW 13.8 mph 20.7 mph N/A   Light Drizzle
1:43 PM 37.4 °F 29.8 °F 32.0 °F 81% 29.92 in 10.0 mi NNW 11.5 mph 20.7 mph N/A   Light Drizzle
1:47 PM 39.2 °F 32.0 °F 32.0 °F 75% 29.92 in 10.0 mi NW 11.5 mph 18.4 mph N/A   Overcast
1:55 PM 38.7 °F 30.9 °F 30.6 °F 73% 29.92 in 10.0 mi NW 12.7 mph - 0.00 in   Overcast
2:01 PM 39.2 °F 33.0 °F 30.2 °F 70% 29.92 in 10.0 mi NNW 9.2 mph 17.3 mph N/A Rain Light Rain
2:10 PM 37.4 °F 30.8 °F 30.2 °F 75% 29.92 in 10.0 mi NNW 9.2 mph - N/A Rain Light Rain
2:11 PM 37.4 °F 30.8 °F 30.2 °F 75% 29.92 in 10.0 mi NNW 9.2 mph - N/A   Overcast
2:15 PM 37.4 °F 30.8 °F 30.2 °F 75% 29.92 in 10.0 mi NW 9.2 mph - N/A   Overcast
2:18 PM 37.4 °F 29.3 °F 30.2 °F 75% 29.92 in 10.0 mi NW 12.7 mph - N/A   Overcast
2:21 PM 37.4 °F 28.5 °F 30.2 °F 75% 29.92 in 10.0 mi NW 15.0 mph - N/A   Light Drizzle
2:22 PM 37.4 °F 28.9 °F 30.2 °F 75% 29.92 in 10.0 mi NW 13.8 mph - N/A   Light Drizzle
2:30 PM 37.4 °F 30.8 °F 30.2 °F 75% 29.92 in 10.0 mi NW 9.2 mph - N/A   Overcast
2:32 PM 37.4 °F 31.4 °F 30.2 °F 75% 29.92 in 10.0 mi NW 8.1 mph - N/A   Overcast
2:43 PM 39.2 °F 30.8 °F 30.2 °F 70% 29.93 in 10.0 mi NW 15.0 mph 21.9 mph N/A Rain Light Rain
2:44 PM 39.2 °F 30.2 °F 30.2 °F 70% 29.93 in 10.0 mi NW 17.3 mph 21.9 mph N/A Rain Light Rain
2:50 PM 37.4 °F 29.8 °F 30.2 °F 75% 29.93 in 9.0 mi NNW 11.5 mph 21.9 mph N/A   Mostly Cloudy
2:55 PM 37.0 °F 29.8 °F 30.7 °F 78% 29.93 in 10.0 mi NW 10.4 mph - 0.00 in   Light Drizzle
2:57 PM 37.4 °F 30.8 °F 30.2 °F 75% 29.93 in 10.0 mi NW 9.2 mph - N/A   Overcast
3:09 PM 37.4 °F 30.3 °F 30.2 °F 75% 29.93 in 10.0 mi NW 10.4 mph - N/A   Overcast
3:22 PM 37.4 °F 30.3 °F 30.2 °F 75% 29.93 in 10.0 mi WNW 10.4 mph - N/A   Overcast
3:30 PM 39.2 °F 35.0 °F 30.2 °F 70% 29.94 in 10.0 mi WNW 5.8 mph - N/A   Overcast
3:40 PM 37.4 °F 30.8 °F 30.2 °F 75% 29.94 in 10.0 mi NW 9.2 mph 17.3 mph N/A   Light Drizzle
3:55 PM 37.6 °F 32.3 °F 31.1 °F 77% 29.94 in 10.0 mi NW 6.9 mph - 0.00 in   Light Drizzle
3:58 PM 37.4 °F 32.1 °F 32.0 °F 81% 29.94 in 10.0 mi NW 6.9 mph - N/A   Overcast
4:15 PM 37.4 °F 32.8 °F 30.2 °F 75% 29.95 in 10.0 mi NW 5.8 mph - N/A   Overcast
4:17 PM 37.4 °F 31.4 °F 30.2 °F 75% 29.95 in 10.0 mi WNW 8.1 mph - N/A   Overcast
4:20 PM 37.4 °F 31.4 °F 30.2 °F 75% 29.95 in 10.0 mi NW 8.1 mph - N/A   Overcast
4:21 PM 37.4 °F 31.4 °F 30.2 °F 75% 29.95 in 10.0 mi NW 8.1 mph - N/A   Overcast
4:32 PM 37.4 °F 30.8 °F 30.2 °F 75% 29.95 in 10.0 mi WNW 9.2 mph - N/A   Overcast
4:33 PM 37.4 °F 30.3 °F 30.2 °F 75% 29.95 in 10.0 mi WNW 10.4 mph - N/A   Overcast
4:55 PM 37.9 °F 32.1 °F 29.3 °F 71% 29.96 in 10.0 mi NW 8.1 mph - 0.00 in   Overcast
5:55 PM 37.8 °F 31.3 °F 29.7 °F 73% 29.97 in 10.0 mi NW 9.2 mph - N/A   Overcast
6:08 PM 37.4 °F 32.8 °F 30.2 °F 75% 29.97 in 10.0 mi NW 5.8 mph - N/A   Light Drizzle
6:20 PM 37.4 °F 31.4 °F 30.2 °F 75% 29.97 in 10.0 mi NW 8.1 mph - N/A   Overcast
6:30 PM 37.4 °F 31.4 °F 30.2 °F 75% 29.97 in 10.0 mi NW 8.1 mph - N/A   Overcast
6:55 PM 37.4 °F 32.1 °F 28.9 °F 71% 29.98 in 10.0 mi NW 6.9 mph - 0.00 in   Overcast
6:59 PM 37.4 °F 32.8 °F 28.4 °F 70% 29.98 in 10.0 mi NW 5.8 mph - N/A   Overcast
7:00 PM 37.4 °F 32.1 °F 28.4 °F 70% 29.99 in 10.0 mi WNW 6.9 mph - N/A   Overcast
7:01 PM 37.4 °F 31.4 °F 28.4 °F 70% 29.98 in 10.0 mi NW 8.1 mph - N/A   Overcast
7:02 PM 37.4 °F 31.4 °F 28.4 °F 70% 29.98 in 10.0 mi NW 8.1 mph - N/A   Overcast
7:03 PM 37.4 °F 31.4 °F 28.4 °F 70% 29.98 in 10.0 mi NW 8.1 mph - N/A   Overcast
7:27 PM 37.4 °F 30.3 °F 28.4 °F 70% 29.99 in 10.0 mi NW 10.4 mph - N/A   Overcast
7:36 PM 37.4 °F 31.4 °F 28.4 °F 70% 29.99 in 10.0 mi NW 8.1 mph - N/A   Overcast
7:41 PM 37.4 °F 30.8 °F 28.4 °F 70% 29.99 in 10.0 mi NW 9.2 mph - N/A   Overcast
7:55 PM 37.4 °F 32.1 °F 29.1 °F 72% 29.99 in 10.0 mi NW 6.9 mph - N/A   Overcast
8:20 PM 37.4 °F 32.8 °F 28.4 °F 70% 30.00 in 10.0 mi WNW 5.8 mph - N/A   Overcast
8:24 PM 37.4 °F 32.8 °F 28.4 °F 70% 30.00 in 10.0 mi NW 5.8 mph - N/A   Overcast
8:29 PM 37.4 °F 32.8 °F 28.4 °F 70% 30.00 in 10.0 mi NW 5.8 mph - N/A   Overcast
8:55 PM 37.0 °F 31.6 °F 29.3 °F 74% 30.00 in 10.0 mi NW 6.9 mph - N/A   Overcast
9:55 PM 36.9 °F 32.2 °F 28.8 °F 72% 30.01 in 10.0 mi NW 5.8 mph - N/A   Overcast
10:55 PM 36.7 °F 30.5 °F 28.0 °F 71% 30.01 in 10.0 mi NW 8.1 mph - N/A   Overcast
11:55 PM 36.3 °F 30.8 °F 27.5 °F 70% 30.01 in 10.0 mi NW 6.9 mph - N/A   Overcast